Location: Choisy
(48.7685°N, 2.4187°E)
Time: 21:18:19
(UTC+00:00)

ATLAS 3B R/B - Pass Details

Date: 02 June 2022
Orbit: 976 x 1218 km, 63.8° (Epoch: 20 June)

Event Time Altitude Azimuth Distance (km) Brightness Sun altitude
Rises 20:57:46 0° 317° (NW) 3,969 8.1 -9.4°
Reaches altitude 10° 21:00:30 10° 312° (NW) 3,040 6.7 -9.7°
Maximum altitude 21:07:25 48° 241° (WSW) 1,509 3.6 -10.4°
Drops below altitude 10° 21:14:36 10° 170° (S) 3,146 4.6 -11.1°
Enters shadow 21:14:40 10° 170° (S) 3,167 4.6 -11.1°
